Regional Weather Roundup
Issued by NWS

Home | Current Version | Previous Version | Graphics & Text | Print | Product List | Glossary On
Versions: 1 2 3 4 5 6 7 8 9 10 11 12 13 14 15 16 17 18 19 20 21 22 23 24 25 26 27 28 29 30 31 32 33 34 35 36 37 38 39 40 41 42 43 44 45 46 47 48 49 50
000
ASUS43 KIND 231509
RWRIN

WEATHER ROUNDUP FOR INDIANA
NATIONAL WEATHER SERVICE INDIANAPOLIS IN
1000 AM EST FRI FEB 23 2018

NOTE: "FAIR" INDICATES FEW OR NO CLOUDS BELOW 12,000 FEET WITH NO
SIGNIFICANT WEATHER AND/OR OBSTRUCTIONS TO VISIBILITY.

* - STATION DOES NOT REPORT WEATHER SUCH AS PRECIPITATION OR FOG.

+ - STATION NOT QUALITY CONTROLLED BY THE NATIONAL WEATHER SERVICE.
    USE DATA WITH CAUTION...ESPECIALLY DEWPOINT AND RELATIVE
    HUMIDITY OBSERVATIONS.

INZ001>003-010>013-019-020-231600-
NORTHWEST INDIANA

CITY           SKY/WX    TMP DP  RH WIND       PRES   REMARKS
GARY /AIRPORT/ CLOUDY    45  45 100 S5        30.11S
LA PORTE +     CLOUDY    41  40  99 S5        30.11F FOG
MICHIGAN CITY+ CLOUDY    43  43 100 S9        30.12S
MONTICELLO +   CLOUDY    44  43  95 SW7       30.14R
RENSSELAER +   CLOUDY    43  41  93 S10       30.14S FOG
VALPARAISO     CLOUDY    44  42  93 SW9       30.12S FOG

$$

LMZ046-743>745-231600-
SOUTHERN LAKE MICHIGAN

STATION/POSITION TIME  TEMP    WIND        PRES    WAVE
                       AIR SEA DIR/SP/G            HT
                 (UTC) (F)     (DEG/KT/KT) (MB)    (FT)
BURNS HARBOR     1440   43     190/ 11/ 15 1020.0R
MICHIGAN CITY    1440   42     170/ 13/ 18   N/A

$$

INZ004-005-014>016-021>024-231600-
NORTH CENTRAL INDIANA

CITY           SKY/WX    TMP DP  RH WIND       PRES   REMARKS
ELKHART        CLOUDY    39  39 100 SW3       30.12S FOG
GOSHEN         CLOUDY    41  40  96 S8        30.11S
LOGANSPORT +   CLOUDY    43  43 100 SW3       30.14R FOG
PERU/GRISSOM   CLOUDY    46  46 100 SW7       30.13S
ROCHESTER +    CLOUDY    45  45 100 S3        30.13S
SOUTH BEND     CLOUDY    40  40 100 SW6       30.12S WCI  36
WARSAW +       MIX PCPN  41  41 100 CALM      30.12F

$$

INZ006>009-017-018-025>027-231600-
NORTHEAST INDIANA

CITY           SKY/WX    TMP DP  RH WIND       PRES   REMARKS
AUBURN +       DRIZZLE   37  37 100 W5        30.15R WCI  34
FORT WAYNE     LGT RAIN  43  42  97 W5        30.14R FOG
HUNTINGTON +   CLOUDY    42  41  96 W3        30.14R FOG
KENDALLVILLE + LGT RAIN  38  38 100 SE6       30.11F WCI  34

$$

INZ028-029-035-036-043>045-051>053-231600-
WEST CENTRAL INDIANA

CITY           SKY/WX    TMP DP  RH WIND       PRES   REMARKS
CRAWFORDSVL +  CLOUDY    47  47 100 W12         N/A
GREENCASTLE +  CLOUDY    50  50 100 W6        30.20R FOG
LAFAYETTE      CLOUDY    47  47 100 SW13      30.16R
TERRE HAUTE    CLOUDY    51  49  92 W13G20    30.22R

$$

INZ030>032-037>040-046>048-054>057-064-065-231600-
CENTRAL INDIANA

CITY           SKY/WX    TMP DP  RH WIND       PRES   REMARKS
ANDERSON       CLOUDY    55  55 100 SW12G23   30.14S
COLUMBUS       LGT RAIN  55 N/A N/A S9        30.20R FOG
FISHERS *+     CLOUDY    52  52 100 W10G18    30.18R
INDIANAPOLIS   LGT RAIN  53  52  96 W18       30.20R FOG
-EAGLE CREEK   CLOUDY    52  50  93 W9        30.18R
KOKOMO +       CLOUDY    49  49 100 SW12      30.15S
MARION +       LGT RAIN  49  49 100 W14       30.16R
MT COMFORT *+  CLOUDY    54  54 100 SW10      30.17R
SHELBYVILLE    LGT RAIN  57  54  89 SW15      30.18R FOG
ZIONSVILLE +   CLOUDY    49  49 100 W12G17    30.18R

$$

INZ033-034-041-042-049-050-058-059-231600-
EAST CENTRAL INDIANA

CITY           SKY/WX    TMP DP  RH WIND       PRES   REMARKS
MUNCIE         CLOUDY    59  56  89 SW13G24   30.13R FOG
RICHMOND +     CLOUDY    54  54 100 SW17      30.18S

$$

INZ060-061-067>069-081>083-085>088-231600-
SOUTHWEST INDIANA

CITY           SKY/WX    TMP DP  RH WIND       PRES   REMARKS
EVANSVILLE     LGT RAIN  54  54 100 W14G22    30.27R FOG
HUNTINGBURG +  LGT RAIN  60  59  96 SW13      30.24R FOG
WASHINGTON +   CLOUDY    52  51  93 W8        30.25R FOG

$$

INZ062-063-066-070>080-084-089>092-231600-
SOUTH CENTRAL AND SOUTHEAST INDIANA

CITY           SKY/WX    TMP DP  RH WIND       PRES   REMARKS
BATESVILLE +   CLOUDY    57  57 100 MISG      30.19R FOG
BEDFORD +      DRIZZLE   59  57  94 SW12G22   30.20R
BLOOMINGTON    LGT RAIN  55  53  93 W13G23    30.22R FOG
FRENCH LICK *+ CLOUDY    59 N/A N/A SW8G17    30.23R
MADISON *+     CLOUDY    59  57  94 S14G20    30.25R
NORTH VERNON + CLOUDY    55  55 100 S13G18    30.21R FOG
SEYMOUR +      DRIZZLE   57  57 100 SW8       30.21R

$$





USA.gov is the U.S. government's official web portal to all federal, state and local government web resources and services.